This is the latest recevied weather packets stored in our database for station/object EA5JUX. If no packets are shown the sender has not sent any weather packets the latest 1 day(s).
| Time | Temp. | Humidity | Pressure | Rain* | Wind** | Luminosity | Snow |
|---|---|---|---|---|---|---|---|
| 1778043137 | 17.78° C | 87% | 1008.9 hPa | 0 mm | - | - | - |
| 1778042837 | 17.22° C | 88% | 1008.6 hPa | 0 mm | - | - | - |
| 1778042538 | 13.89° C | 87% | 1008.8 hPa | 0 mm | - | - | - |
| 1778042238 | 14.44° C | 87% | 1008.8 hPa | 0 mm | - | - | - |
| 1778041937 | 13.89° C | 87% | 1008.9 hPa | 0 mm | - | - | - |
| 1778041637 | 13.33° C | 86% | 1008.7 hPa | 0 mm | - | - | - |
| 1778041338 | 13.89° C | 86% | 1008.7 hPa | 0 mm | - | - | - |
| 1778041044 | 14.44° C | 87% | 1008.6 hPa | 0 mm | - | - | - |
| 1778040737 | 14.44° C | 87% | 1008.8 hPa | 0 mm | - | - | - |
| 1778040437 | 13.89° C | 87% | 1008.7 hPa | 0 mm | - | - | - |
| 1778040138 | 14.44° C | 88% | 1008.9 hPa | 0 mm | - | - | - |
| 1778039537 | 13.89° C | 88% | 1008.7 hPa | 0 mm | - | - | - |
| 1778039237 | 13.89° C | 88% | 1008.8 hPa | 0 mm | - | - | - |
| 1778038359 | 14.44° C | 87% | 1009 hPa | 0 mm | - | - | - |
| 1778038038 | 14.44° C | 88% | 1009 hPa | 0 mm | - | - | - |
| 1778037738 | 14.44° C | 88% | 1008.9 hPa | 0 mm | - | - | - |
| 1778037137 | 15° C | 88% | 1009.1 hPa | 0 mm | - | - | - |
| 1778036837 | 14.44° C | 87% | 1009.1 hPa | 0 mm | - | - | - |
| 1778036537 | 14.44° C | 87% | 1009.2 hPa | 0 mm | - | - | - |
| 1778036237 | 14.44° C | 87% | 1009 hPa | 0 mm | - | - | - |
| 1778035937 | 13.89° C | 87% | 1009.1 hPa | 0 mm | - | - | - |
| 1778035637 | 13.89° C | 87% | 1009.3 hPa | 0 mm | - | - | - |
| 1778035338 | 14.44° C | 87% | 1009.4 hPa | 0 mm | - | - | - |
| 1778035037 | 14.44° C | 86% | 1009.3 hPa | 0 mm | - | - | - |
| 1778034137 | 16.11° C | 85% | 1009.1 hPa | 0 mm | - | - | - |
* Rain latest hour (hover to see other rain measurements)
** Current wind speed in m/s (hover to see current wind gust speed)